Year,Month,Day,Hour,Minute,Value (Times are PST for insolation in W/m^2)
2021,09,07,00,00,0.00
2021,09,07,00,01,0.00
2021,09,07,00,02,0.00
2021,09,07,00,03,0.00
2021,09,07,00,04,0.00
2021,09,07,00,05,0.00
2021,09,07,00,06,0.00
2021,09,07,00,07,0.00
2021,09,07,00,08,0.00
2021,09,07,00,09,0.00
2021,09,07,00,10,0.00
2021,09,07,00,11,0.00
2021,09,07,00,12,0.00
2021,09,07,00,13,0.00
2021,09,07,00,14,0.00
2021,09,07,00,15,0.00
2021,09,07,00,16,0.00
2021,09,07,00,17,0.00
2021,09,07,00,18,0.00
2021,09,07,00,19,0.00
2021,09,07,00,20,0.00
2021,09,07,00,21,0.00
2021,09,07,00,22,0.00
2021,09,07,00,23,0.00
2021,09,07,00,24,0.00
2021,09,07,00,25,0.00
2021,09,07,00,26,0.00
2021,09,07,00,27,0.00
2021,09,07,00,28,0.00
2021,09,07,00,29,0.00
2021,09,07,00,30,0.00
2021,09,07,00,31,0.00
2021,09,07,00,32,0.00
2021,09,07,00,33,0.00
2021,09,07,00,34,0.00
2021,09,07,00,35,0.00
2021,09,07,00,36,0.00
2021,09,07,00,37,0.00
2021,09,07,00,38,0.00
2021,09,07,00,39,0.00
2021,09,07,00,40,0.00
2021,09,07,00,41,0.00
2021,09,07,00,42,0.00
2021,09,07,00,43,0.00
2021,09,07,00,44,0.00
2021,09,07,00,45,0.00
2021,09,07,00,46,0.00
2021,09,07,00,47,0.00
2021,09,07,00,48,0.00
2021,09,07,00,49,0.00
2021,09,07,00,50,0.00
2021,09,07,00,51,0.00
2021,09,07,00,52,0.00
2021,09,07,00,53,0.00
2021,09,07,00,54,0.00
2021,09,07,00,55,0.00
2021,09,07,00,56,0.00
2021,09,07,00,57,0.00
2021,09,07,00,58,0.00
2021,09,07,00,59,0.00
2021,09,07,01,00,0.00
2021,09,07,01,01,0.00
2021,09,07,01,02,0.00
2021,09,07,01,03,0.00
2021,09,07,01,04,0.00
2021,09,07,01,05,0.00
2021,09,07,01,06,0.00
2021,09,07,01,07,0.00
2021,09,07,01,08,0.00
2021,09,07,01,09,0.00
2021,09,07,01,10,0.00
2021,09,07,01,11,0.00
2021,09,07,01,12,0.00
2021,09,07,01,13,0.00
2021,09,07,01,14,0.00
2021,09,07,01,15,0.00
2021,09,07,01,16,0.00
2021,09,07,01,17,0.00
2021,09,07,01,18,0.00
2021,09,07,01,19,0.00
2021,09,07,01,20,0.00
2021,09,07,01,21,0.00
2021,09,07,01,22,0.00
2021,09,07,01,23,0.00
2021,09,07,01,24,0.00
2021,09,07,01,25,0.00
2021,09,07,01,26,0.00
2021,09,07,01,27,0.00
2021,09,07,01,28,0.00
2021,09,07,01,29,0.00
2021,09,07,01,30,0.00
2021,09,07,01,31,0.00
2021,09,07,01,32,0.00
2021,09,07,01,33,0.00
2021,09,07,01,34,0.00
2021,09,07,01,35,0.00
2021,09,07,01,36,0.00
2021,09,07,01,37,0.00
2021,09,07,01,38,0.00
2021,09,07,01,39,0.00
2021,09,07,01,40,0.00
2021,09,07,01,41,0.00
2021,09,07,01,42,0.00
2021,09,07,01,43,0.00
2021,09,07,01,44,0.00
2021,09,07,01,45,0.00
2021,09,07,01,46,0.00
2021,09,07,01,47,0.00
2021,09,07,01,48,0.00
2021,09,07,01,49,0.00
2021,09,07,01,50,0.00
2021,09,07,01,51,0.00
2021,09,07,01,52,0.00
2021,09,07,01,53,0.00
2021,09,07,01,54,0.00
2021,09,07,01,55,0.00
2021,09,07,01,56,0.00
2021,09,07,01,57,0.00
2021,09,07,01,58,0.00
2021,09,07,01,59,0.00
2021,09,07,02,00,0.00
2021,09,07,02,01,0.00
2021,09,07,02,02,0.00
2021,09,07,02,03,0.00
2021,09,07,02,04,0.00
2021,09,07,02,05,0.00
2021,09,07,02,06,0.00
2021,09,07,02,07,0.00
2021,09,07,02,08,0.00
2021,09,07,02,09,0.00
2021,09,07,02,10,0.00
2021,09,07,02,11,0.00
2021,09,07,02,12,0.00
2021,09,07,02,13,0.00
2021,09,07,02,14,0.00
2021,09,07,02,15,0.00
2021,09,07,02,16,0.00
2021,09,07,02,17,0.00
2021,09,07,02,18,0.00
2021,09,07,02,19,0.00
2021,09,07,02,20,0.00
2021,09,07,02,21,0.00
2021,09,07,02,22,0.00
2021,09,07,02,23,0.00
2021,09,07,02,24,0.00
2021,09,07,02,25,0.00
2021,09,07,02,26,0.00
2021,09,07,02,27,0.00
2021,09,07,02,28,0.00
2021,09,07,02,29,0.00
2021,09,07,02,30,0.00
2021,09,07,02,31,0.00
2021,09,07,02,32,0.00
2021,09,07,02,33,0.00
2021,09,07,02,34,0.00
2021,09,07,02,35,0.00
2021,09,07,02,36,0.00
2021,09,07,02,37,0.00
2021,09,07,02,38,0.00
2021,09,07,02,39,0.00
2021,09,07,02,40,0.00
2021,09,07,02,41,0.00
2021,09,07,02,42,0.00
2021,09,07,02,43,0.00
2021,09,07,02,44,0.00
2021,09,07,02,45,0.00
2021,09,07,02,46,0.00
2021,09,07,02,47,0.00
2021,09,07,02,48,0.00
2021,09,07,02,49,0.00
2021,09,07,02,50,0.00
2021,09,07,02,51,0.00
2021,09,07,02,52,0.00
2021,09,07,02,53,0.00
2021,09,07,02,54,0.00
2021,09,07,02,55,0.00
2021,09,07,02,56,0.00
2021,09,07,02,57,0.00
2021,09,07,02,58,0.00
2021,09,07,02,59,0.00
2021,09,07,03,00,0.00
2021,09,07,03,01,0.00
2021,09,07,03,02,0.00
2021,09,07,03,03,0.00
2021,09,07,03,04,0.00
2021,09,07,03,05,0.00
2021,09,07,03,06,0.00
2021,09,07,03,07,0.00
2021,09,07,03,08,0.00
2021,09,07,03,09,0.00
2021,09,07,03,10,0.00
2021,09,07,03,11,0.00
2021,09,07,03,12,0.00
2021,09,07,03,13,0.00
2021,09,07,03,14,0.00
2021,09,07,03,15,0.00
2021,09,07,03,16,0.00
2021,09,07,03,17,0.00
2021,09,07,03,18,0.00
2021,09,07,03,19,0.00
2021,09,07,03,20,0.00
2021,09,07,03,21,0.00
2021,09,07,03,22,0.00
2021,09,07,03,23,0.00
2021,09,07,03,24,0.00
2021,09,07,03,25,0.00
2021,09,07,03,26,0.00
2021,09,07,03,27,0.00
2021,09,07,03,28,0.00
2021,09,07,03,29,0.00
2021,09,07,03,30,0.00
2021,09,07,03,31,0.00
2021,09,07,03,32,0.00
2021,09,07,03,33,0.00
2021,09,07,03,34,0.00
2021,09,07,03,35,0.00
2021,09,07,03,36,0.00
2021,09,07,03,37,0.00
2021,09,07,03,38,0.00
2021,09,07,03,39,0.00
2021,09,07,03,40,0.00
2021,09,07,03,41,0.00
2021,09,07,03,42,0.00
2021,09,07,03,43,0.00
2021,09,07,03,44,0.00
2021,09,07,03,45,0.00
2021,09,07,03,46,0.00
2021,09,07,03,47,0.00
2021,09,07,03,48,0.00
2021,09,07,03,49,0.00
2021,09,07,03,50,0.00
2021,09,07,03,51,0.00
2021,09,07,03,52,0.00
2021,09,07,03,53,0.00
2021,09,07,03,54,0.00
2021,09,07,03,55,0.00
2021,09,07,03,56,0.00
2021,09,07,03,57,0.00
2021,09,07,03,58,0.00
2021,09,07,03,59,0.00
2021,09,07,04,00,0.00
2021,09,07,04,01,0.00
2021,09,07,04,02,0.00
2021,09,07,04,03,0.00
2021,09,07,04,04,0.00
2021,09,07,04,05,0.00
2021,09,07,04,06,0.00
2021,09,07,04,07,0.00
2021,09,07,04,08,0.00
2021,09,07,04,09,0.00
2021,09,07,04,10,0.00
2021,09,07,04,11,0.00
2021,09,07,04,12,0.00
2021,09,07,04,13,0.00
2021,09,07,04,14,0.00
2021,09,07,04,15,0.00
2021,09,07,04,16,0.00
2021,09,07,04,17,0.00
2021,09,07,04,18,0.00
2021,09,07,04,19,0.00
2021,09,07,04,20,0.00
2021,09,07,04,21,0.00
2021,09,07,04,22,0.00
2021,09,07,04,23,0.00
2021,09,07,04,24,0.00
2021,09,07,04,25,0.00
2021,09,07,04,26,0.00
2021,09,07,04,27,0.00
2021,09,07,04,28,0.00
2021,09,07,04,29,0.00
2021,09,07,04,30,0.00
2021,09,07,04,31,0.00
2021,09,07,04,32,0.00
2021,09,07,04,33,0.00
2021,09,07,04,34,0.00
2021,09,07,04,35,0.00
2021,09,07,04,36,0.00
2021,09,07,04,37,0.00
2021,09,07,04,38,0.00
2021,09,07,04,39,0.00
2021,09,07,04,40,0.00
2021,09,07,04,41,0.00
2021,09,07,04,42,0.00
2021,09,07,04,43,0.00
2021,09,07,04,44,0.00
2021,09,07,04,45,0.00
2021,09,07,04,46,0.00
2021,09,07,04,47,0.00
2021,09,07,04,48,0.00
2021,09,07,04,49,0.00
2021,09,07,04,50,0.00
2021,09,07,04,51,0.00
2021,09,07,04,52,0.00
2021,09,07,04,53,0.00
2021,09,07,04,54,0.00
2021,09,07,04,55,0.00
2021,09,07,04,56,0.00
2021,09,07,04,57,0.00
2021,09,07,04,58,0.00
2021,09,07,04,59,0.00
2021,09,07,05,00,0.00
2021,09,07,05,01,0.00
2021,09,07,05,02,0.00
2021,09,07,05,03,0.00
2021,09,07,05,04,0.00
2021,09,07,05,05,0.00
2021,09,07,05,06,0.00
2021,09,07,05,07,0.00
2021,09,07,05,08,0.00
2021,09,07,05,09,0.00
2021,09,07,05,10,0.00
2021,09,07,05,11,0.00
2021,09,07,05,12,0.00
2021,09,07,05,13,0.00
2021,09,07,05,14,0.00
2021,09,07,05,15,0.00
2021,09,07,05,16,0.00
2021,09,07,05,17,0.00
2021,09,07,05,18,0.00
2021,09,07,05,19,0.00
2021,09,07,05,20,0.00
2021,09,07,05,21,0.00
2021,09,07,05,22,0.00
2021,09,07,05,23,0.00
2021,09,07,05,24,0.00
2021,09,07,05,25,0.00
2021,09,07,05,26,0.00
2021,09,07,05,27,0.00
2021,09,07,05,28,0.00
2021,09,07,05,29,0.00
2021,09,07,05,30,0.00
2021,09,07,05,31,0.00
2021,09,07,05,32,0.00
2021,09,07,05,33,0.00
2021,09,07,05,34,0.00
2021,09,07,05,35,0.00
2021,09,07,05,36,0.00
2021,09,07,05,37,0.00
2021,09,07,05,38,0.00
2021,09,07,05,39,0.00
2021,09,07,05,40,0.00
2021,09,07,05,41,0.00
2021,09,07,05,42,0.00
2021,09,07,05,43,0.00
2021,09,07,05,44,0.00
2021,09,07,05,45,0.00
2021,09,07,05,46,0.00
2021,09,07,05,47,0.00
2021,09,07,05,48,0.00
2021,09,07,05,49,0.00
2021,09,07,05,50,0.00
2021,09,07,05,51,0.00
2021,09,07,05,52,0.00
2021,09,07,05,53,0.00
2021,09,07,05,54,0.00
2021,09,07,05,55,0.00
2021,09,07,05,56,0.00
2021,09,07,05,57,0.00
2021,09,07,05,58,0.00
2021,09,07,05,59,0.00
2021,09,07,06,00,0.00
2021,09,07,06,01,0.00
2021,09,07,06,02,0.00
2021,09,07,06,03,0.00
2021,09,07,06,04,0.00
2021,09,07,06,05,0.00
2021,09,07,06,06,0.00
2021,09,07,06,07,0.00
2021,09,07,06,08,0.00
2021,09,07,06,09,0.00
2021,09,07,06,10,0.00
2021,09,07,06,11,0.00
2021,09,07,06,12,0.00
2021,09,07,06,13,0.00
2021,09,07,06,14,0.00
2021,09,07,06,15,0.00
2021,09,07,06,16,0.00
2021,09,07,06,17,0.00
2021,09,07,06,18,0.00
2021,09,07,06,19,0.00
2021,09,07,06,20,0.00
2021,09,07,06,21,0.00
2021,09,07,06,22,0.00
2021,09,07,06,23,0.00
2021,09,07,06,24,0.00
2021,09,07,06,25,0.00
2021,09,07,06,26,0.00
2021,09,07,06,27,0.00
2021,09,07,06,28,0.00
2021,09,07,06,29,0.00
2021,09,07,06,30,0.00
2021,09,07,06,31,0.00
2021,09,07,06,32,0.00
2021,09,07,06,33,0.00
2021,09,07,06,34,0.00
2021,09,07,06,35,0.00
2021,09,07,06,36,0.00
2021,09,07,06,37,0.00
2021,09,07,06,38,0.00
2021,09,07,06,39,0.00
2021,09,07,06,40,0.00
2021,09,07,06,41,3.50
2021,09,07,06,42,5.00
2021,09,07,06,43,5.00
2021,09,07,06,44,5.00
2021,09,07,06,45,5.00
2021,09,07,06,46,5.00
2021,09,07,06,47,5.00
2021,09,07,06,48,6.50
2021,09,07,06,49,7.00
2021,09,07,06,50,7.00
2021,09,07,06,51,7.00
2021,09,07,06,52,7.70
2021,09,07,06,53,9.00
2021,09,07,06,54,10.20
2021,09,07,06,55,11.00
2021,09,07,06,56,11.00
2021,09,07,06,57,11.00
2021,09,07,06,58,12.00
2021,09,07,06,59,18.50
2021,09,07,07,00,23.00
2021,09,07,07,01,23.00
2021,09,07,07,02,28.20
2021,09,07,07,03,31.70
2021,09,07,07,04,33.20
2021,09,07,07,05,35.50
2021,09,07,07,06,37.60
2021,09,07,07,07,39.00
2021,09,07,07,08,39.00
2021,09,07,07,09,39.00
2021,09,07,07,10,44.90
2021,09,07,07,11,47.20
2021,09,07,07,12,49.00
2021,09,07,07,13,50.80
2021,09,07,07,14,55.00
2021,09,07,07,15,57.20
2021,09,07,07,16,59.50
2021,09,07,07,17,61.70
2021,09,07,07,18,63.00
2021,09,07,07,19,63.00
2021,09,07,07,20,63.00
2021,09,07,07,21,67.50
2021,09,07,07,22,73.20
2021,09,07,07,23,74.00
2021,09,07,07,24,74.00
2021,09,07,07,25,79.20
2021,09,07,07,26,81.50
2021,09,07,07,27,83.30
2021,09,07,07,28,84.90
2021,09,07,07,29,86.00
2021,09,07,07,30,86.00
2021,09,07,07,31,86.00
2021,09,07,07,32,87.10
2021,09,07,07,33,97.20
2021,09,07,07,34,98.70
2021,09,07,07,35,100.00
2021,09,07,07,36,100.00
2021,09,07,07,37,103.80
2021,09,07,07,38,106.70
2021,09,07,07,39,109.10
2021,09,07,07,40,111.00
2021,09,07,07,41,112.80
2021,09,07,07,42,116.00
2021,09,07,07,43,118.40
2021,09,07,07,44,120.70
2021,09,07,07,45,121.00
2021,09,07,07,46,121.60
2021,09,07,07,47,127.20
2021,09,07,07,48,128.70
2021,09,07,07,49,130.90
2021,09,07,07,50,133.90
2021,09,07,07,51,135.00
2021,09,07,07,52,138.40
2021,09,07,07,53,139.00
2021,09,07,07,54,139.00
2021,09,07,07,55,141.40
2021,09,07,07,56,147.50
2021,09,07,07,57,149.00
2021,09,07,07,58,152.00
2021,09,07,07,59,155.60
2021,09,07,08,00,156.40
2021,09,07,08,01,160.40
2021,09,07,08,02,162.30
2021,09,07,08,03,163.00
2021,09,07,08,04,163.00
2021,09,07,08,05,163.00
2021,09,07,08,06,170.60
2021,09,07,08,07,174.00
2021,09,07,08,08,174.00
2021,09,07,08,09,176.40
2021,09,07,08,10,181.90
2021,09,07,08,11,183.00
2021,09,07,08,12,185.20
2021,09,07,08,13,187.70
2021,09,07,08,14,188.00
2021,09,07,08,15,188.00
2021,09,07,08,16,188.00
2021,09,07,08,17,194.00
2021,09,07,08,18,202.40
2021,09,07,08,19,205.50
2021,09,07,08,20,208.60
2021,09,07,08,21,209.50
2021,09,07,08,22,214.50
2021,09,07,08,23,216.60
2021,09,07,08,24,219.40
2021,09,07,08,25,222.20
2021,09,07,08,26,224.50
2021,09,07,08,27,225.00
2021,09,07,08,28,229.90
2021,09,07,08,29,232.80
2021,09,07,08,30,236.00
2021,09,07,08,31,238.50
2021,09,07,08,32,242.20
2021,09,07,08,33,243.70
2021,09,07,08,34,247.20
2021,09,07,08,35,250.20
2021,09,07,08,36,253.50
2021,09,07,08,37,255.70
2021,09,07,08,38,257.00
2021,09,07,08,39,261.20
2021,09,07,08,40,264.00
2021,09,07,08,41,264.90
2021,09,07,08,42,265.70
2021,09,07,08,43,272.50
2021,09,07,08,44,274.00
2021,09,07,08,45,276.50
2021,09,07,08,46,281.40
2021,09,07,08,47,284.50
2021,09,07,08,48,285.00
2021,09,07,08,49,285.00
2021,09,07,08,50,287.00
2021,09,07,08,51,295.70
2021,09,07,08,52,297.90
2021,09,07,08,53,300.80
2021,09,07,08,54,305.00
2021,09,07,08,55,307.70
2021,09,07,08,56,308.50
2021,09,07,08,57,313.40
2021,09,07,08,58,315.00
2021,09,07,08,59,316.50
2021,09,07,09,00,318.00
2021,09,07,09,01,318.00
2021,09,07,09,02,325.60
2021,09,07,09,03,329.10
2021,09,07,09,04,330.00
2021,09,07,09,05,330.00
2021,09,07,09,06,334.00
2021,09,07,09,07,341.30
2021,09,07,09,08,344.50
2021,09,07,09,09,347.50
2021,09,07,09,10,348.40
2021,09,07,09,11,352.00
2021,09,07,09,12,354.50
2021,09,07,09,13,359.50
2021,09,07,09,14,361.20
2021,09,07,09,15,362.00
2021,09,07,09,16,366.20
2021,09,07,09,17,363.40
2021,09,07,09,18,358.80
2021,09,07,09,19,326.10
2021,09,07,09,20,374.30
2021,09,07,09,21,379.10
2021,09,07,09,22,380.70
2021,09,07,09,23,382.70
2021,09,07,09,24,386.90
2021,09,07,09,25,388.50
2021,09,07,09,26,390.00
2021,09,07,09,27,392.00
2021,09,07,09,28,395.20
2021,09,07,09,29,396.00
2021,09,07,09,30,402.00
2021,09,07,09,31,403.50
2021,09,07,09,32,408.50
2021,09,07,09,33,411.10
2021,09,07,09,34,414.80
2021,09,07,09,35,417.00
2021,09,07,09,36,420.70
2021,09,07,09,37,422.00
2021,09,07,09,38,416.40
2021,09,07,09,39,366.00
2021,09,07,09,40,366.00
2021,09,07,09,41,397.50
2021,09,07,09,42,437.10
2021,09,07,09,43,440.10
2021,09,07,09,44,444.40
2021,09,07,09,45,435.60
2021,09,07,09,46,450.00
2021,09,07,09,47,451.80
2021,09,07,09,48,455.00
2021,09,07,09,49,455.00
2021,09,07,09,50,442.50
2021,09,07,09,51,438.00
2021,09,07,09,52,438.00
2021,09,07,09,53,432.40
2021,09,07,09,54,410.00
2021,09,07,09,55,425.50
2021,09,07,09,56,441.00
2021,09,07,09,57,467.20
2021,09,07,09,58,477.70
2021,09,07,09,59,478.00
2021,09,07,10,00,469.60
2021,09,07,10,01,453.80
2021,09,07,10,02,483.00
2021,09,07,10,03,486.70
2021,09,07,10,04,489.00
2021,09,07,10,05,489.90
2021,09,07,10,06,492.30
2021,09,07,10,07,496.20
2021,09,07,10,08,497.70
2021,09,07,10,09,501.00
2021,09,07,10,10,503.60
2021,09,07,10,11,504.00
2021,09,07,10,12,504.00
2021,09,07,10,13,510.20
2021,09,07,10,14,512.80
2021,09,07,10,15,516.80
2021,09,07,10,16,520.00
2021,09,07,10,17,522.40
2021,09,07,10,18,525.50
2021,09,07,10,19,528.40
2021,09,07,10,20,533.50
2021,09,07,10,21,538.00
2021,09,07,10,22,538.00
2021,09,07,10,23,538.00
2021,09,07,10,24,538.00
2021,09,07,10,25,538.00
2021,09,07,10,26,538.00
2021,09,07,10,27,300.50
2021,09,07,10,28,344.80
2021,09,07,10,29,518.60
2021,09,07,10,30,524.00
2021,09,07,10,31,527.00
2021,09,07,10,32,529.00
2021,09,07,10,33,529.00
2021,09,07,10,34,471.90
2021,09,07,10,35,154.30
2021,09,07,10,36,178.40
2021,09,07,10,37,184.90
2021,09,07,10,38,206.40
2021,09,07,10,39,216.00
2021,09,07,10,40,563.80
2021,09,07,10,41,629.00
2021,09,07,10,42,630.00
2021,09,07,10,43,633.00
2021,09,07,10,44,632.10
2021,09,07,10,45,629.80
2021,09,07,10,46,629.00
2021,09,07,10,47,350.60
2021,09,07,10,48,275.30
2021,09,07,10,49,221.00
2021,09,07,10,50,221.00
2021,09,07,10,51,221.00
2021,09,07,10,52,173.00
2021,09,07,10,53,184.50
2021,09,07,10,54,228.80
2021,09,07,10,55,234.00
2021,09,07,10,56,336.00
2021,09,07,10,57,642.00
2021,09,07,10,58,642.00
2021,09,07,10,59,642.00
2021,09,07,11,00,623.20
2021,09,07,11,01,607.70
2021,09,07,11,02,635.90
2021,09,07,11,03,624.00
2021,09,07,11,04,594.50
2021,09,07,11,05,619.50
2021,09,07,11,06,649.40
2021,09,07,11,07,657.00
2021,09,07,11,08,657.00
2021,09,07,11,09,585.00
2021,09,07,11,10,574.30
2021,09,07,11,11,540.00
2021,09,07,11,12,540.00
2021,09,07,11,13,540.00
2021,09,07,11,14,540.00
2021,09,07,11,15,540.00
2021,09,07,11,16,540.00
2021,09,07,11,17,536.80
2021,09,07,11,18,527.00
2021,09,07,11,19,533.50
2021,09,07,11,20,497.40
2021,09,07,11,21,469.00
2021,09,07,11,22,469.00
2021,09,07,11,23,469.00
2021,09,07,11,24,467.00
2021,09,07,11,25,490.90
2021,09,07,11,26,586.20
2021,09,07,11,27,626.00
2021,09,07,11,28,626.00
2021,09,07,11,29,641.40
2021,09,07,11,30,645.00
2021,09,07,11,31,647.40
2021,09,07,11,32,657.00
2021,09,07,11,33,657.00
2021,09,07,11,34,655.20
2021,09,07,11,35,624.80
2021,09,07,11,36,628.60
2021,09,07,11,37,631.70
2021,09,07,11,38,662.00
2021,09,07,11,39,627.80
2021,09,07,11,40,570.00
2021,09,07,11,41,570.00
2021,09,07,11,42,570.00
2021,09,07,11,43,655.60
2021,09,07,11,44,676.00
2021,09,07,11,45,650.00
2021,09,07,11,46,652.50
2021,09,07,11,47,666.50
2021,09,07,11,48,618.80
2021,09,07,11,49,597.50
2021,09,07,11,50,595.70
2021,09,07,11,51,594.00
2021,09,07,11,52,602.50
2021,09,07,11,53,628.00
2021,09,07,11,54,668.00
2021,09,07,11,55,712.20
2021,09,07,11,56,715.00
2021,09,07,11,57,568.50
2021,09,07,11,58,534.00
2021,09,07,11,59,534.00
2021,09,07,12,00,596.30
2021,09,07,12,01,717.00
2021,09,07,12,02,675.80
2021,09,07,12,03,645.00
2021,09,07,12,04,597.80
2021,09,07,12,05,636.70
2021,09,07,12,06,675.00
2021,09,07,12,07,689.70
2021,09,07,12,08,704.70
2021,09,07,12,09,679.60
2021,09,07,12,10,707.00
2021,09,07,12,11,729.20
2021,09,07,12,12,728.00
2021,09,07,12,13,717.50
2021,09,07,12,14,691.20
2021,09,07,12,15,681.20
2021,09,07,12,16,673.20
2021,09,07,12,17,676.30
2021,09,07,12,18,656.80
2021,09,07,12,19,649.40
2021,09,07,12,20,708.20
2021,09,07,12,21,673.00
2021,09,07,12,22,687.00
2021,09,07,12,23,687.80
2021,09,07,12,24,697.60
2021,09,07,12,25,739.00
2021,09,07,12,26,752.70
2021,09,07,12,27,737.60
2021,09,07,12,28,710.80
2021,09,07,12,29,686.50
2021,09,07,12,30,679.40
2021,09,07,12,31,681.80
2021,09,07,12,32,699.50
2021,09,07,12,33,723.00
2021,09,07,12,34,727.20
2021,09,07,12,35,740.00
2021,09,07,12,36,740.00
2021,09,07,12,37,751.00
2021,09,07,12,38,758.00
2021,09,07,12,39,750.30
2021,09,07,12,40,701.40
2021,09,07,12,41,712.00
2021,09,07,12,42,733.00
2021,09,07,12,43,733.00
2021,09,07,12,44,742.60
2021,09,07,12,45,750.50
2021,09,07,12,46,751.80
2021,09,07,12,47,763.00
2021,09,07,12,48,763.00
2021,09,07,12,49,759.20
2021,09,07,12,50,752.00
2021,09,07,12,51,756.20
2021,09,07,12,52,758.20
2021,09,07,12,53,752.00
2021,09,07,12,54,758.00
2021,09,07,12,55,756.60
2021,09,07,12,56,740.80
2021,09,07,12,57,731.90
2021,09,07,12,58,744.00
2021,09,07,12,59,747.50
2021,09,07,13,00,751.50
2021,09,07,13,01,750.80
2021,09,07,13,02,764.80
2021,09,07,13,03,737.20
2021,09,07,13,04,714.00
2021,09,07,13,05,737.00
2021,09,07,13,06,737.00
2021,09,07,13,07,729.30
2021,09,07,13,08,758.10
2021,09,07,13,09,760.80
2021,09,07,13,10,681.20
2021,09,07,13,11,611.70
2021,09,07,13,12,598.00
2021,09,07,13,13,598.00
2021,09,07,13,14,717.60
2021,09,07,13,15,754.00
2021,09,07,13,16,779.00
2021,09,07,13,17,733.80
2021,09,07,13,18,633.50
2021,09,07,13,19,639.60
2021,09,07,13,20,656.00
2021,09,07,13,21,656.00
2021,09,07,13,22,615.30
2021,09,07,13,23,663.00
2021,09,07,13,24,680.80
2021,09,07,13,25,733.00
2021,09,07,13,26,761.20
2021,09,07,13,27,766.00
2021,09,07,13,28,766.00
2021,09,07,13,29,767.70
2021,09,07,13,30,762.20
2021,09,07,13,31,738.60
2021,09,07,13,32,710.00
2021,09,07,13,33,710.00
2021,09,07,13,34,699.70
2021,09,07,13,35,696.00
2021,09,07,13,36,702.20
2021,09,07,13,37,757.00
2021,09,07,13,38,741.80
2021,09,07,13,39,730.10
2021,09,07,13,40,709.40
2021,09,07,13,41,690.40
2021,09,07,13,42,691.00
2021,09,07,13,43,729.10
2021,09,07,13,44,740.00
2021,09,07,13,45,705.60
2021,09,07,13,46,743.40
2021,09,07,13,47,731.30
2021,09,07,13,48,721.00
2021,09,07,13,49,721.00
2021,09,07,13,50,677.20
2021,09,07,13,51,675.00
2021,09,07,13,52,708.20
2021,09,07,13,53,735.80
2021,09,07,13,54,694.00
2021,09,07,13,55,567.30
2021,09,07,13,56,522.00
2021,09,07,13,57,545.50
2021,09,07,13,58,732.60
2021,09,07,13,59,693.00
2021,09,07,14,00,653.40
2021,09,07,14,01,614.60
2021,09,07,14,02,666.80
2021,09,07,14,03,746.80
2021,09,07,14,04,729.50
2021,09,07,14,05,728.00
2021,09,07,14,06,732.90
2021,09,07,14,07,741.00
2021,09,07,14,08,740.00
2021,09,07,14,09,734.70
2021,09,07,14,10,680.30
2021,09,07,14,11,726.00
2021,09,07,14,12,726.00
2021,09,07,14,13,714.50
2021,09,07,14,14,695.40
2021,09,07,14,15,695.50
2021,09,07,14,16,688.00
2021,09,07,14,17,686.00
2021,09,07,14,18,711.90
2021,09,07,14,19,725.40
2021,09,07,14,20,731.00
2021,09,07,14,21,734.00
2021,09,07,14,22,728.00
2021,09,07,14,23,673.00
2021,09,07,14,24,611.70
2021,09,07,14,25,669.70
2021,09,07,14,26,721.00
2021,09,07,14,27,702.50
2021,09,07,14,28,673.00
2021,09,07,14,29,659.80
2021,09,07,14,30,693.40
2021,09,07,14,31,694.60
2021,09,07,14,32,673.60
2021,09,07,14,33,655.50
2021,09,07,14,34,675.30
2021,09,07,14,35,664.50
2021,09,07,14,36,644.60
2021,09,07,14,37,622.20
2021,09,07,14,38,666.00
2021,09,07,14,39,663.50
2021,09,07,14,40,572.80
2021,09,07,14,41,552.00
2021,09,07,14,42,565.30
2021,09,07,14,43,573.80
2021,09,07,14,44,558.00
2021,09,07,14,45,604.20
2021,09,07,14,46,622.00
2021,09,07,14,47,622.00
2021,09,07,14,48,622.00
2021,09,07,14,49,622.00
2021,09,07,14,50,622.00
2021,09,07,14,51,691.30
2021,09,07,14,52,721.00
2021,09,07,14,53,720.40
2021,09,07,14,54,713.20
2021,09,07,14,55,705.50
2021,09,07,14,56,700.00
2021,09,07,14,57,700.00
2021,09,07,14,58,690.20
2021,09,07,14,59,678.50
2021,09,07,15,00,673.20
2021,09,07,15,01,657.00
2021,09,07,15,02,662.30
2021,09,07,15,03,672.00
2021,09,07,15,04,675.40
2021,09,07,15,05,677.00
2021,09,07,15,06,675.30
2021,09,07,15,07,661.90
2021,09,07,15,08,588.00
2021,09,07,15,09,593.60
2021,09,07,15,10,615.00
2021,09,07,15,11,664.00
2021,09,07,15,12,661.90
2021,09,07,15,13,640.00
2021,09,07,15,14,641.40
2021,09,07,15,15,635.20
2021,09,07,15,16,639.40
2021,09,07,15,17,627.00
2021,09,07,15,18,609.20
2021,09,07,15,19,624.80
2021,09,07,15,20,605.20
2021,09,07,15,21,600.80
2021,09,07,15,22,624.00
2021,09,07,15,23,621.60
2021,09,07,15,24,636.00
2021,09,07,15,25,636.00
2021,09,07,15,26,613.50
2021,09,07,15,27,611.10
2021,09,07,15,28,606.70
2021,09,07,15,29,617.00
2021,09,07,15,30,627.20
2021,09,07,15,31,623.00
2021,09,07,15,32,619.00
2021,09,07,15,33,615.50
2021,09,07,15,34,615.00
2021,09,07,15,35,581.70
2021,09,07,15,36,580.00
2021,09,07,15,37,580.00
2021,09,07,15,38,581.90
2021,09,07,15,39,578.60
2021,09,07,15,40,585.50
2021,09,07,15,41,589.00
2021,09,07,15,42,589.50
2021,09,07,15,43,594.00
2021,09,07,15,44,594.00
2021,09,07,15,45,590.70
2021,09,07,15,46,582.70
2021,09,07,15,47,562.80
2021,09,07,15,48,578.90
2021,09,07,15,49,581.80
2021,09,07,15,50,579.30
2021,09,07,15,51,574.50
2021,09,07,15,52,570.00
2021,09,07,15,53,562.20
2021,09,07,15,54,557.00
2021,09,07,15,55,546.70
2021,09,07,15,56,549.10
2021,09,07,15,57,560.10
2021,09,07,15,58,563.00
2021,09,07,15,59,561.00
2021,09,07,16,00,561.00
2021,09,07,16,01,556.70
2021,09,07,16,02,554.20
2021,09,07,16,03,545.30
2021,09,07,16,04,548.00
2021,09,07,16,05,546.20
2021,09,07,16,06,543.00
2021,09,07,16,07,543.00
2021,09,07,16,08,541.60
2021,09,07,16,09,538.50
2021,09,07,16,10,536.10
2021,09,07,16,11,535.20
2021,09,07,16,12,533.00
2021,09,07,16,13,533.00
2021,09,07,16,14,530.60
2021,09,07,16,15,527.60
2021,09,07,16,16,527.00
2021,09,07,16,17,498.80
2021,09,07,16,18,445.40
2021,09,07,16,19,489.70
2021,09,07,16,20,507.00
2021,09,07,16,21,515.40
2021,09,07,16,22,519.00
2021,09,07,16,23,513.90
2021,09,07,16,24,507.80
2021,09,07,16,25,503.00
2021,09,07,16,26,503.00
2021,09,07,16,27,502.10
2021,09,07,16,28,498.60
2021,09,07,16,29,496.30
2021,09,07,16,30,496.00
2021,09,07,16,31,495.10
2021,09,07,16,32,489.80
2021,09,07,16,33,487.40
2021,09,07,16,34,483.50
2021,09,07,16,35,482.00
2021,09,07,16,36,477.00
2021,09,07,16,37,473.30
2021,09,07,16,38,462.00
2021,09,07,16,39,462.00
2021,09,07,16,40,462.00
2021,09,07,16,41,461.50
2021,09,07,16,42,459.80
2021,09,07,16,43,460.50
2021,09,07,16,44,459.30
2021,09,07,16,45,455.10
2021,09,07,16,46,453.60
2021,09,07,16,47,449.70
2021,09,07,16,48,445.00
2021,09,07,16,49,439.60
2021,09,07,16,50,432.30
2021,09,07,16,51,431.00
2021,09,07,16,52,435.10
2021,09,07,16,53,426.60
2021,09,07,16,54,424.00
2021,09,07,16,55,422.00
2021,09,07,16,56,420.80
2021,09,07,16,57,417.80
2021,09,07,16,58,417.00
2021,09,07,16,59,417.00
2021,09,07,17,00,416.60
2021,09,07,17,01,414.30
2021,09,07,17,02,412.10
2021,09,07,17,03,407.90
2021,09,07,17,04,406.00
2021,09,07,17,05,398.40
2021,09,07,17,06,390.00
2021,09,07,17,07,383.70
2021,09,07,17,08,374.80
2021,09,07,17,09,375.50
2021,09,07,17,10,376.00
2021,09,07,17,11,378.00
2021,09,07,17,12,382.20